Location: Apollinopolis Magna
(24.9792°N, 32.8772°E)
Time: 04:39:27
(UTC+00:00)

H-2A R/B - Pass Details

Date: 02 March 2021
Orbit: 732 x 837 km, 98.2° (Epoch: 12 April)

Event Time Altitude Azimuth Distance (km) Brightness Sun altitude
Rises 16:44:56 0° 168° (SSE) 3,332 5.2 -13.0°
Reaches altitude 10° 16:47:15 10° 169° (S) 2,413 4.5 -13.5°
Maximum altitude 16:52:37 84° 257° (WSW) 840 2.2 -14.7°
Drops below altitude 10° 16:58:05 10° 347° (NNW) 2,450 4.8 -15.9°
Sets 17:00:28 0° 348° (NNW) 3,387 5.5 -16.5°
